Location: Evergreen Manor
(41.4083°N, 81.4939°W)
Time: 22:35:17
(UTC+00:00)

Meteor 1-19 Rocket - Pass Details

Date: 11 December 2019
Orbit: 816 x 918 km, 81.2° (Epoch: 17 January)

Event Time Altitude Azimuth Distance (km) Brightness Sun altitude
Rises 00:22:34 0° 196° (SSW) 3,389 7.6 -26.6°
Reaches altitude 10° 00:25:01 10° 199° (SSW) 2,445 6.9 -27.0°
Maximum altitude 00:30:29 66° 281° (WNW) 904 4.4 -28.1°
Enters shadow 00:32:31 38° 349° (N) 1,234 5.0 -28.4°
